Location: Newark
(35.6799°N, 139.7636°E)
Time: 09:31:37
(UTC+00:00)

Explorer 7 - Pass Details

Date: 14 December 2019
Orbit: 485 x 679 km, 50.3° (Epoch: 17 January)

Event Time Altitude Azimuth Distance (km) Brightness Sun altitude
Rises 07:09:09 0° 288° (WNW) 2,995 11.2 2.6°
Reaches altitude 10° 07:12:20 10° 310° (NW) 2,103 10.1 2.0°
Maximum altitude 07:15:22 16° 348° (NNW) 1,730 9.2 1.5°
Drops below altitude 10° 07:18:27 10° 27° (NNE) 2,118 9.3 0.9°
Sets 07:21:40 0° 49° (NE) 3,028 9.9 0.4°
